Location: Rioux
(40.7500°S, 175.7500°E)
Time: 10:19:42
(UTC+00:00)

Cosmos 2056 Rocket - Pass Details

Date: 12 June 2024
Orbit: 741 x 797 km, 74.0° (Epoch: 20 July)

Event Time Altitude Azimuth Distance (km) Brightness Sun altitude
Exits shadow 17:41:46 45° 276° (W) 1,064 3.8 -21.4°
Maximum altitude 17:41:57 45° 283° (WNW) 1,061 3.8 -21.3°
Drops below altitude 10° 17:47:01 10° 354° (N) 2,343 6.1 -20.4°
Sets 17:49:29 0° 0° (N) 3,271 6.9 -19.9°
